Weather History for Sacramento / Mc Clellan, CA

Change the Weather History Date:

Tuesday, May 28, 2013

  Actual Average (KMHR) Record (KMHR)
Temperature  
Mean Temperature 67 °F -  
Max Temperature 77 °F 83 °F 98 °F (2003)
Min Temperature 57 °F 52 °F 44 °F (2011)
Cooling Degree Days 2    
Growing Degree Days 17 (Base 50)    
Moisture  
Dew Point 52 °F    
Average Humidity 64    
Maximum Humidity 94    
Minimum Humidity 28    
Precipitation  
Precipitation 0.00 in - - ()
Sea Level Pressure  
Sea Level Pressure 29.95 in    
Wind  
Wind Speed 7 mph (South)    
Max Wind Speed 14 mph    
Max Gust Speed 23 mph    
Visibility 9 miles    
Events      
Averages and records for this station are not official NWS values.
T = Trace of Precipitation, MM = Missing Value Source: NWS Daily Summary

Daily Weather History Graph

Daily Weather History Graph

Search for Another Location

Airport:

Trip Planner

Search our weather history database for the weather conditions in past years. The results will help you decide how hot, cold, wet, or windy it might be!

Date:

Astronomy

May. 28, 2013 Rise Set
Actual Time 5:44 AM PDT 8:21 PM PDT
Civil Twilight 5:13 AM PDT 8:52 PM PDT
Nautical Twilight 4:34 AM PDT 9:31 PM PDT
Astronomical Twilight 3:51 AM PDT 10:15 PM PDT
Moon 11:50 PM PDT (5/28) 9:37 AM PDT (5/28)
Length of Visible Light 15h 39m
Length of Day
14h 37m
Waning Gibbous, 82% of the Moon is Illuminated
May 28
Waning Gibbous
May 31
Last Quarter
Jun 8
New
Jun 16
First Quarter
Jun 23
Full

Hourly Weather History & Observations

Time (PDT) Temp. Dew Point Humidity Pressure Visibility Wind Dir Wind Speed Gust Speed Precip Events Conditions
12:00 AM 57.2 °F 55.4 °F 94% 30.00 in 7.0 mi South 6.9 mph - N/A   Overcast
12:20 AM 57.2 °F 55.4 °F 94% 30.00 in 5.0 mi South 9.2 mph - N/A   Overcast
12:40 AM 57.2 °F 55.4 °F 94% 29.99 in 5.0 mi South 11.5 mph 17.3 mph N/A   Overcast
1:00 AM 57.2 °F 55.4 °F 94% 29.98 in 5.0 mi SSE 10.4 mph - N/A   Overcast
1:20 AM 57.2 °F 55.4 °F 94% 29.98 in 7.0 mi South 6.9 mph - N/A   Overcast
1:40 AM 59.0 °F 55.4 °F 88% 29.99 in 7.0 mi SSW 4.6 mph - N/A   Overcast
2:00 AM 59.0 °F 55.4 °F 88% 29.98 in 7.0 mi South 8.1 mph - N/A   Overcast
2:20 AM 59.0 °F 55.4 °F 88% 29.98 in 10.0 mi South 10.4 mph - N/A   Overcast
2:40 AM 57.2 °F 55.4 °F 94% 29.97 in 6.0 mi South 10.4 mph - N/A   Overcast
3:00 AM 57.2 °F 55.4 °F 94% 29.97 in 5.0 mi SSE 11.5 mph - N/A   Overcast
3:20 AM 57.2 °F 55.4 °F 94% 29.97 in 9.0 mi SSW 8.1 mph - N/A   Overcast
3:40 AM 57.2 °F 55.4 °F 94% 29.97 in 7.0 mi South 9.2 mph - N/A   Overcast
4:00 AM 57.2 °F 55.4 °F 94% 29.97 in 7.0 mi SSE 8.1 mph - N/A   Overcast
4:20 AM 57.2 °F 55.4 °F 94% 29.97 in 8.0 mi South 9.2 mph - N/A   Overcast
4:40 AM 57.2 °F 55.4 °F 94% 29.97 in 5.0 mi South 8.1 mph - N/A   Overcast
5:00 AM 57.2 °F 55.4 °F 94% 29.96 in 10.0 mi SSE 9.2 mph - N/A   Overcast
5:20 AM 57.2 °F 55.4 °F 94% 29.97 in 6.0 mi SSE 9.2 mph - N/A   Overcast
5:40 AM 57.2 °F 55.4 °F 94% 29.96 in 6.0 mi SSE 6.9 mph - N/A   Overcast
6:00 AM 57.2 °F 55.4 °F 94% 29.96 in 10.0 mi SSE 8.1 mph - N/A   Overcast
6:20 AM 57.2 °F 53.6 °F 88% 29.96 in 4.0 mi SSE 10.4 mph - N/A   Mostly Cloudy
6:40 AM 59.0 °F 55.4 °F 88% 29.97 in 10.0 mi SSE 9.2 mph - N/A   Mostly Cloudy
7:00 AM 59.0 °F 55.4 °F 88% 29.97 in 7.0 mi SSE 6.9 mph - N/A   Overcast
7:20 AM 59.0 °F 55.4 °F 88% 29.97 in 7.0 mi SSE 8.1 mph - N/A   Overcast
7:40 AM 59.0 °F 55.4 °F 88% 29.97 in 9.0 mi SSE 9.2 mph - N/A   Overcast
8:00 AM 59.0 °F 55.4 °F 88% 29.97 in 4.0 mi South 9.2 mph - N/A   Haze
8:20 AM 60.8 °F 55.4 °F 82% 29.97 in 8.0 mi SE 9.2 mph - N/A   Mostly Cloudy
8:40 AM 62.6 °F 55.4 °F 77% 29.98 in 10.0 mi SSE 6.9 mph - N/A   Scattered Clouds
9:00 AM 62.6 °F 55.4 °F 77% 29.99 in 7.0 mi SSE 6.9 mph - N/A   Partly Cloudy
9:20 AM 62.6 °F 55.4 °F 77% 29.98 in 7.0 mi SE 5.8 mph - N/A   Clear
9:40 AM 64.4 °F 55.4 °F 73% 29.98 in 9.0 mi SE 8.1 mph - N/A   Partly Cloudy
10:00 AM 66.2 °F 55.4 °F 68% 29.98 in 9.0 mi SSW 3.5 mph - N/A   Partly Cloudy
10:20 AM 68.0 °F 55.4 °F 64% 29.98 in 10.0 mi SE 6.9 mph - N/A   Mostly Cloudy
10:40 AM 68.0 °F 53.6 °F 60% 29.98 in 10.0 mi SW 5.8 mph - N/A   Scattered Clouds
11:00 AM 66.2 °F 51.8 °F 60% 29.98 in 10.0 mi WSW 3.5 mph - N/A   Mostly Cloudy
11:20 AM 68.0 °F 51.8 °F 56% 29.98 in 10.0 mi Calm Calm - N/A   Mostly Cloudy
11:40 AM 68.0 °F 50.0 °F 52% 29.99 in 10.0 mi SSW 3.5 mph - N/A   Mostly Cloudy
12:00 PM 69.8 °F 50.0 °F 49% 29.98 in 10.0 mi NW 4.6 mph - N/A   Overcast
12:20 PM 71.6 °F 50.0 °F 46% 29.98 in 10.0 mi NNE 5.8 mph - N/A   Scattered Clouds
12:40 PM 69.8 °F 50.0 °F 49% 29.98 in 10.0 mi Calm Calm - N/A   Mostly Cloudy
1:00 PM 71.6 °F 50.0 °F 46% 29.97 in 10.0 mi Calm Calm - N/A   Scattered Clouds
1:20 PM 73.4 °F 50.0 °F 44% 29.97 in 9.0 mi SW 5.8 mph - N/A   Scattered Clouds
1:40 PM 73.4 °F 50.0 °F 44% 29.96 in 8.0 mi NE 3.5 mph - N/A   Scattered Clouds
2:00 PM 73.4 °F 50.0 °F 44% 29.96 in 8.0 mi ESE 4.6 mph - N/A   Mostly Cloudy
2:20 PM 73.4 °F 48.2 °F 41% 29.95 in 5.0 mi Calm Calm - N/A   Haze
2:40 PM 75.2 °F 48.2 °F 38% 29.95 in 10.0 mi WSW 5.8 mph - N/A   Partly Cloudy
3:00 PM 75.2 °F 48.2 °F 38% 29.94 in 10.0 mi West 8.1 mph - N/A   Clear
3:20 PM 75.2 °F 46.4 °F 36% 29.93 in 10.0 mi NW 3.5 mph - N/A   Clear
3:40 PM 77.0 °F 46.4 °F 34% 29.93 in 8.0 mi West 9.2 mph - N/A   Clear
4:00 PM 77.0 °F 41.0 °F 28% 29.93 in 10.0 mi WNW 13.8 mph - N/A   Clear
4:20 PM 77.0 °F 44.6 °F 32% 29.92 in 10.0 mi West 10.4 mph 23.0 mph N/A   Clear
4:40 PM 77.0 °F 46.4 °F 34% 29.92 in 10.0 mi NW 9.2 mph - N/A   Clear
5:00 PM 75.2 °F 46.4 °F 36% 29.91 in 10.0 mi Calm Calm - N/A   Clear
5:20 PM 75.2 °F 46.4 °F 36% 29.89 in 10.0 mi WNW 4.6 mph - N/A   Clear
5:40 PM 77.0 °F 44.6 °F 32% 29.89 in 10.0 mi WSW 4.6 mph - N/A   Clear
6:00 PM 77.0 °F 42.8 °F 29% 29.89 in 10.0 mi NNW 5.8 mph - N/A   Clear
6:20 PM 77.0 °F 44.6 °F 32% 29.89 in 10.0 mi WNW 4.6 mph - N/A   Clear
6:40 PM 77.0 °F 44.6 °F 32% 29.88 in 10.0 mi NNW 4.6 mph - N/A   Clear
7:00 PM 75.2 °F 46.4 °F 36% 29.88 in 10.0 mi WNW 3.5 mph - N/A   Clear
7:20 PM 75.2 °F 46.4 °F 36% 29.88 in 10.0 mi NW 4.6 mph - N/A   Clear
7:40 PM 75.2 °F 48.2 °F 38% 29.89 in 10.0 mi NW 5.8 mph - N/A   Clear
8:00 PM 73.4 °F 46.4 °F 38% 29.89 in 10.0 mi NW 5.8 mph - N/A   Clear
8:20 PM 71.6 °F 48.2 °F 43% 29.89 in 10.0 mi Calm Calm - N/A   Clear
8:40 PM 71.6 °F 51.8 °F 50% 29.89 in 10.0 mi SSW 9.2 mph - N/A   Clear
9:00 PM 69.8 °F 51.8 °F 53% 29.89 in 10.0 mi SSW 8.1 mph - N/A   Clear
9:20 PM 68.0 °F 51.8 °F 56% 29.89 in 10.0 mi SSW 6.9 mph - N/A   Clear
9:40 PM 68.0 °F 51.8 °F 56% 29.89 in 10.0 mi SSW 10.4 mph - N/A   Clear
10:00 PM 68.0 °F 51.8 °F 56% 29.89 in 10.0 mi South 6.9 mph - N/A   Unknown
10:20 PM 66.2 °F 50.0 °F 56% 29.89 in 10.0 mi South 8.1 mph - N/A   Clear
10:40 PM 66.2 °F 50.0 °F 56% 29.90 in 10.0 mi South 8.1 mph - N/A   Clear
11:00 PM 66.2 °F 50.0 °F 56% 29.89 in 10.0 mi SSE 6.9 mph - N/A   Clear
11:20 PM 64.4 °F 50.0 °F 59% 29.89 in 10.0 mi SSE 5.8 mph - N/A   Clear
11:40 PM 64.4 °F 50.0 °F 59% 29.89 in 10.0 mi SSE 8.1 mph - N/A   Clear